Location: Unspecified
(0.0000°N, 0.0000°E)
Time: 13:39:11
(UTC+00:00)

BEESAT 2 - Visible Passes

Search period start: 09 December 2019 00:00
Search period end: 19 December 2019 00:00
Orbit: 493 x 535 km, 64.9° (Epoch: 08 December)

Date Brightness Start Highest point End Pass type
(mag) Time Alt. Az. Time Alt. Az. Time Alt. Az.
11 Dec?19:56:52SSE19:56:52SSE19:46:03NNWvisible
12 Dec ? 19:31:42 10° NW 19:35:33 53° WSW 19:39:21 10° S visible
13 Dec ? 19:15:30 10° NW 19:19:19 52° WSW 19:23:06 10° S visible
14 Dec ? 18:59:16 10° NW 19:03:06 51° WSW 19:06:53 10° S visible
15 Dec ? 18:43:03 10° NW 18:46:52 51° WSW 18:50:39 10° S visible
16 Dec ? 18:26:50 10° NW 18:30:38 50° WSW 18:34:25 10° S visible
